Regional Weather Roundup
Issued by NWS New Orleans/Baton Rouge, LA

Home | Current Version | Previous Version | Text Only | Print | Product List | Glossary On
Versions: 1 2 3 4 5 6 7 8 9 10 11 12 13 14 15 16 17 18 19 20 21 22 23 24 25 26 27 28 29 30 31 32 33 34 35 36 37 38 39 40 41 42 43 44 45 46 47 48 49 50
737
ASUS44 KLIX 270501
RWRLIX
NEW ORLEANS REGIONAL WEATHER ROUNDUP
NATIONAL WEATHER SERVICE NEW ORLEANS LA
1100 PM CST FRI DEC 26 2014

NOTE: "FAIR" INDICATES FEW OR NO CLOUDS BELOW 12,000 FEET WITH NO
      SIGNIFICANT WEATHER AND/OR OBSTRUCTIONS TO VISIBILITY.
      SKY/WX - SKY CONDITION AND SIGNIFICANT WEATHER.
      TMP - AIR TEMPERATURE.     DP    - DEWPOINT TEMPERATURE.
      RH  - RELATIVE HUMIDITY.   PRES  - PRESSURE.
      HI  - HEAT INDEX.          WCI   - WIND CHILL INDEX.

*  THESE STATIONS ARE NOT NWS OR FAA STATIONS AND ARE NOT UNDER
   NWS QUALITY CONTROL.

LAZ038-040-048-061>063-065>067-069-270600-
SOUTHEAST LOUISIANA

CITY           SKY/WX    TMP DP  RH WIND       PRES   REMARKS
N.O. AUDUBON   NOT AVBL
N.O. INTL ARPT CLOUDY    65  57  75 SE12      30.14R
N.O. LAKEFRONT CLOUDY    64  58  80 E15       30.15S
N.O. DOWNTOWN* CLOUDY    64  55  72 E5        30.15R
SLIDELL        CLOUDY    62  56  80 E9G17     30.15F
BATON ROUGE    LGT RAIN  59  57  93 E10       30.14S
BOOTHVILLE     MOCLDY    64  60  87 E10       30.14F
BELLE CHASSE   CLOUDY    62  58  86 E12       30.14R
BOGALUSA*        N/A     62  54  74 SE6       30.17F
GALLIANO*      NOT AVBL
NEW ROADS*     NOT AVBL
GONZALES*      NOT AVBL
HAMMOND*       NOT AVBL
HOUMA*         CLOUDY    64  61  89 E15       30.11S
PORT FOURCHON* CLOUDY    68  64  88 SE16      30.14F

$$

MSZ070-080>082-270600-
SOUTHERN MISSISSIPPI

CITY           SKY/WX    TMP DP  RH WIND       PRES   REMARKS
MCCOMB         CLOUDY    58  54  86 SE5       30.15F
GULFPORT       CLOUDY    61  52  72 E15G21    30.17S
BILOXI         PTCLDY    60  52  73 E10       30.18S
PASCAGOULA     CLOUDY    59  48  67 E10       30.18S

$$

COASTAL OBSERVATIONS
LAKE AND NEARSHORE STATIONS

STATION/POSITION TIME  TEMP    WIND        PRES    WAVE
                       AIR SEA DIR/SP/G            HT/PER
                 (UTC) (F)     (DEG/KT/KT) (MB)    (FT/S)
PASCAGOULA       0400   61     100/ 14/ 20 1021.5
WAVELAND YACHT   0400   60     100/ 13/ 18 1020.5
GRAND ISLE       0400   66 63  120/  6/ 11 1020.4
SOUTHWEST PASS   0400   68                 1020.4
NEW CANAL        0400   62 57   90/  3/  7 1020.9
SHELL BEACH      0400   62 60   90/ 12/ 15 1020.3

OFFSHORE STATIONS

STATION/POSITION TIME  TEMP    WIND        PRES    WAVE
                       AIR SEA DIR/SP/G            HT/PER
                 (UTC) (F)     (DEG/KT/KT) (MB)    (FT/S)
64 S DAUPHIN ISL 0500   70 74  110/ 23/ 27 1020.7    5/ 5

$$




USA.gov is the U.S. government's official web portal to all federal, state and local government web resources and services.